Terug naar catalogus

RADIO 2

ActiefAmateurradioPO
NORAD 11086·PAYLOAD·🇷🇺 Russia

Gelanceerd Oct 26, 1978 vanaf Plesetsk Cosmodrome

Loading…

Volgende Passages (komende 24 uur)

TLE

VersSource: Space-Track

Epoch: Sep 14, 2026, 05:09 UTC

1 11086U 78100C   26257.21509091  .00000037  00000-0  36229-3 0  9996
2 11086  82.5561 353.9650 0013247 147.4592 237.3696 11.96754221 91560

Volg RADIO 2 in realtime met AllMySat

Download on the App Store